| time (UTC) | temp C | wind direction | speed KPH | gust KPH | rain 1hr cm | rain 24hr cm | rain mn cm | humidity % | barometer mb |
| 20260505124507 | 16 | 185 | 1.6 | 8.0 | 0.00 | 0.00 | 0.00 | 66 | 1015.9 |
| 20260505123001 | 16 | 165 | 3.2 | 6.4 | 0.00 | 0.00 | 0.00 | 69 | 1016.1 |
| 20260505121557 | 15 | 217 | 0.0 | 4.8 | 0.00 | 0.00 | 0.00 | 72 | 1016.0 |
| 20260505120103 | 12 | 142 | 0.0 | 3.2 | 0.00 | 0.00 | 0.00 | 76 | 1016.1 |
| 20260505114549 | 12 | 157 | 1.6 | 3.2 | 0.00 | 0.00 | 0.00 | 78 | 1016.2 |
| 20260505113101 | 11 | 275 | 0.0 | 0.0 | 0.00 | 0.00 | 0.00 | 80 | 1015.9 |
| 20260505111543 | 10 | 275 | 0.0 | 3.2 | 0.00 | 0.00 | 0.00 | 81 | 1015.8 |
| 20260505101531 | 11 | 311 | 0.0 | 0.0 | 0.00 | 0.00 | 0.00 | 75 | 1015.2 |
| 20260505100031 | 11 | 311 | 0.0 | 0.0 | 0.00 | 0.00 | 0.00 | 75 | 1015.2 |
| 20260505094533 | 11 | 311 | 0.0 | 0.0 | 0.00 | 0.00 | 0.00 | 75 | 1015.2 |
| 20260505093029 | 11 | 311 | 0.0 | 0.0 | 0.00 | 0.00 | 0.00 | 75 | 1015.3 |
| 20260505091528 | 11 | 311 | 0.0 | 0.0 | 0.00 | 0.00 | 0.00 | 75 | 1015.1 |
| 20260505090026 | 12 | 311 | 0.0 | 0.0 | 0.00 | 0.00 | 0.00 | 74 | 1014.9 |
| 20260505084541 | 12 | 319 | 0.0 | 0.0 | 0.00 | 0.00 | 0.00 | 72 | 1014.8 |
| 20260505083022 | 11 | 317 | 0.0 | 0.0 | 0.00 | 0.00 | 0.00 | 73 | 1014.9 |
| 20260505081521 | 12 | 313 | 0.0 | 4.8 | 0.00 | 0.00 | 0.00 | 73 | 1014.9 |
| 20260505080022 | 12 | 292 | 0.0 | 0.0 | 0.00 | 0.00 | 0.00 | 74 | 1014.7 |
| 20260505074516 | 12 | 292 | 0.0 | 3.2 | 0.00 | 0.00 | 0.00 | 71 | 1014.6 |
| 20260505073014 | 12 | 300 | 0.0 | 0.0 | 0.00 | 0.00 | 0.00 | 71 | 1014.6 |
| 20260505071511 | 13 | 296 | 0.0 | 0.0 | 0.00 | 0.00 | 0.00 | 69 | 1014.4 |
| 20260505070011 | 13 | 296 | 0.0 | 0.0 | 0.00 | 0.00 | 0.00 | 69 | 1014.3 |
| 20260505064509 | 13 | 296 | 0.0 | 0.0 | 0.00 | 0.00 | 0.00 | 69 | 1014.3 |
| 20260505063008 | 13 | 279 | 0.0 | 0.0 | 0.00 | 0.00 | 0.00 | 70 | 1014.3 |
| 20260505061510 | 13 | 279 | 0.0 | 0.0 | 0.00 | 0.00 | 0.00 | 70 | 1014.3 |
| 20260505060004 | 13 | 277 | 0.0 | 0.0 | 0.00 | 0.00 | 0.00 | 68 | 1014.3 |
| 20260505054501 | 14 | 277 | 0.0 | 0.0 | 0.00 | 0.00 | 0.00 | 68 | 1014.3 |
| 20260505053116 | 14 | 275 | 0.0 | 0.0 | 0.00 | 0.00 | 0.00 | 67 | 1014.2 |
| 20260505051559 | 14 | 277 | 0.0 | 3.2 | 0.00 | 0.00 | 0.00 | 67 | 1014.2 |
| 20260505050107 | 14 | 277 | 0.0 | 3.2 | 0.00 | 0.00 | 0.00 | 68 | 1014.1 |
| 20260505041550 | 14 | 294 | 0.0 | 1.6 | 0.00 | 0.00 | 0.00 | 71 | 1014.0 |
| 20260505040046 | 14 | 300 | 0.0 | 0.0 | 0.00 | 0.00 | 0.00 | 71 | 1014.1 |
| 20260505034606 | 14 | 297 | 0.0 | 0.0 | 0.00 | 0.00 | 0.00 | 71 | 1014.3 |
| 20260505033052 | 14 | 271 | 0.0 | 0.0 | 0.00 | 0.00 | 0.00 | 71 | 1014.4 |
| 20260505031546 | 15 | 252 | 0.0 | 3.2 | 0.00 | 0.00 | 0.00 | 70 | 1014.5 |
| 20260505030044 | 15 | 221 | 0.0 | 3.2 | 0.00 | 0.00 | 0.00 | 70 | 1014.5 |
| 20260505024543 | 14 | 285 | 0.0 | 3.2 | 0.00 | 0.00 | 0.00 | 71 | 1014.6 |
| 20260505023047 | 14 | 315 | 0.0 | 3.2 | 0.00 | 0.00 | 0.00 | 72 | 1014.6 |
| 20260505021543 | 14 | 288 | 0.0 | 6.4 | 0.00 | 0.00 | 0.00 | 72 | 1014.5 |
| 20260505020043 | 15 | 302 | 0.0 | 3.2 | 0.00 | 0.00 | 0.00 | 71 | 1014.6 |
| 20260505014542 | 15 | 294 | 0.0 | 3.2 | 0.00 | 0.00 | 0.00 | 71 | 1014.4 |
| 20260505013041 | 15 | 257 | 0.0 | 3.2 | 0.00 | 0.00 | 0.00 | 70 | 1014.3 |
| 20260505011600 | 16 | 201 | 0.0 | 3.2 | 0.00 | 0.00 | 0.00 | 68 | 1013.9 |
| 20260505010040 | 16 | 319 | 0.0 | 3.2 | 0.00 | 0.00 | 0.00 | 65 | 1013.8 |
| 20260505004540 | 16 | 261 | 0.0 | 0.0 | 0.00 | 0.00 | 0.00 | 65 | 1013.6 |
| 20260505003039 | 17 | 239 | 0.0 | 3.2 | 0.00 | 0.00 | 0.00 | 64 | 1013.4 |
| 20260505001539 | 18 | 276 | 0.0 | 0.0 | 0.00 | 0.00 | 0.00 | 64 | 1013.4 |
| 20260505000048 | 18 | 276 | 0.0 | 0.0 | 0.00 | 0.00 | 0.00 | 61 | 1013.4 |
| 20260504234538 | 20 | 276 | 0.0 | 0.0 | 0.00 | 0.00 | 0.00 | 59 | 1013.2 |
| 20260504233045 | 21 | 276 | 0.0 | 4.8 | 0.00 | 0.00 | 0.00 | 58 | 1013.1 |
| 20260504231537 | 22 | 218 | 0.0 | 4.8 | 0.00 | 0.00 | 0.00 | 55 | 1013.1 |
| 20260504230035 | 22 | 215 | 0.0 | 0.0 | 0.00 | 0.00 | 0.00 | 53 | 1013.2 |
| 20260504224541 | 22 | 215 | 1.6 | 4.8 | 0.00 | 0.00 | 0.00 | 51 | 1013.2 |
| 20260504223032 | 22 | 156 | 3.2 | 8.0 | 0.00 | 0.00 | 0.00 | 50 | 1013.3 |
| 20260504221531 | 23 | 220 | 3.2 | 14.5 | 0.00 | 0.00 | 0.00 | 49 | 1013.5 |
| 20260504220033 | 23 | 156 | 1.6 | 6.4 | 0.00 | 0.00 | 0.00 | 50 | 1013.6 |
| 20260504214530 | 23 | 253 | 0.0 | 3.2 | 0.00 | 0.00 | 0.00 | 49 | 1013.6 |
| 20260504213033 | 22 | 355 | 1.6 | 4.8 | 0.00 | 0.00 | 0.00 | 51 | 1013.9 |
| 20260504211529 | 22 | 201 | 4.8 | 14.5 | 0.00 | 0.00 | 0.00 | 48 | 1013.7 |
| 20260504210027 | 22 | 192 | 3.2 | 11.3 | 0.00 | 0.00 | 0.00 | 50 | 1013.9 |
| 20260504204527 | 23 | 146 | 3.2 | 11.3 | 0.00 | 0.00 | 0.00 | 48 | 1013.6 |
| 20260504203025 | 22 | 157 | 4.8 | 16.1 | 0.00 | 0.00 | 0.00 | 49 | 1013.4 |
| 20260504201523 | 22 | 254 | 6.4 | 19.3 | 0.00 | 0.00 | 0.00 | 52 | 1013.6 |
| 20260504200021 | 22 | 161 | 3.2 | 12.9 | 0.00 | 0.00 | 0.00 | 50 | 1013.9 |
| 20260504194527 | 22 | 196 | 6.4 | 19.3 | 0.00 | 0.00 | 0.00 | 48 | 1014.2 |
| 20260504193018 | 22 | 245 | 4.8 | 17.7 | 0.00 | 0.00 | 0.00 | 50 | 1014.3 |
| 20260504191518 | 22 | 203 | 3.2 | 11.3 | 0.00 | 0.00 | 0.00 | 48 | 1014.5 |
| 20260504190018 | 21 | 182 | 6.4 | 14.5 | 0.00 | 0.00 | 0.00 | 50 | 1014.7 |
| 20260504184515 | 22 | 244 | 6.4 | 17.7 | 0.00 | 0.00 | 0.00 | 50 | 1014.6 |
| 20260504183011 | 21 | 195 | 1.6 | 11.3 | 0.00 | 0.00 | 0.00 | 52 | 1015.1 |
| 20260504181509 | 21 | 252 | 4.8 | 16.1 | 0.00 | 0.00 | 0.00 | 49 | 1015.4 |
| 20260504180007 | 22 | 194 | 3.2 | 12.9 | 0.00 | 0.00 | 0.00 | 47 | 1015.5 |
| 20260504174510 | 22 | 40 | 6.4 | 16.1 | 0.00 | 0.00 | 0.00 | 47 | 1015.6 |
| 20260504173006 | 22 | 200 | 4.8 | 14.5 | 0.00 | 0.00 | 0.00 | 50 | 1015.6 |
| 20260504171601 | 21 | 252 | 8.0 | 17.7 | 0.00 | 0.00 | 0.00 | 49 | 1015.7 |